Preview of NWS' New Version of Forecast
This preview is not operational and should not be used for support decisions.

Regional Weather Roundup (RWR)

Issued by National Weather Service (NWS)

                            
000
ASUS43 KDMX 220601
RWRIA 

WEATHER ROUNDUP FOR IOWA
NATIONAL WEATHER SERVICE DES MOINES IA
100 AM CDT MON APR 22 2019

NOTE: "FAIR" INDICATES FEW OR NO CLOUDS BELOW 12,000 FEET WITH NO
SIGNIFICANT WEATHER AND/OR OBSTRUCTIONS TO VISIBILITY.

* - THESE STATIONS ARE NOT NWS STATIONS...THUS NOT UNDER NWS
QUALITY CONTROL.  THEY ALSO DO NOT REPORT WEATHER SUCH 
AS PRECIPITATION OR FOG.  

IAZ001>003-012>014-020>022-031>034-043>046-220700-
   NORTHWEST IOWA
  
CITY           SKY/WX    TMP DP  RH WIND       PRES   REMARKS
CARROLL *      MOCLDY    70  46  43 S16G26    29.79R                  
CHEROKEE *     CLOUDY    67  47  48 CALM      29.75R                  
DENISON *      CLOUDY    70  46  43 SE16      29.78R                  
LE MARS *      CLOUDY    59  54  82 NE14      29.74R                  
SHELDON *        N/A     54  54 100 NE20G28   29.75F                  
SIOUX CITY     CLOUDY    66  53  63 W5        29.72R THUNDER          
6HR MIN TEMP:  64; 6HR MAX TEMP:  77;                                

SPENCER        CLOUDY    57  49  74 NE20      29.78F                  
6HR MIN TEMP:  57; 6HR MAX TEMP:  74; 6HR PCP: TRACE;                

STORM LAKE *   CLOUDY    64  46  52 S14       29.73R                  
$$
 
IAZ055>058-069>071-079>083-090>094-220700-
   SOUTHWEST IOWA
  
CITY           SKY/WX    TMP DP  RH WIND       PRES   REMARKS
ATLANTIC *     CLOUDY    68  46  45 S12       29.78S                  
AUDUBON *      PTCLDY    64  48  55 CALM      29.81S                  
CLARINDA *     CLOUDY    68  46  45 S9        29.83S                  
COUNCIL BLFS * CLOUDY    70  50  49 S12       29.78R                  
CRESTON *      CLOUDY    64  48  55 SE10      29.85R                  
HARLAN  *      CLOUDY    68  46  45 S10       29.78S                  
LAMONI         CLOUDY    67  47  48 S10       29.86R                  
6HR MIN TEMP:  67; 6HR MAX TEMP:  80;                                

RED OAK *      CLOUDY    70  46  43 S12       29.80R                  
SHENANDOAH *   MOCLDY    72  48  43 S14G20    29.79R                  
$$
 
IAZ047>049-059>061-072>074-084-220700-
   CENTRAL IOWA
  
CITY           SKY/WX    TMP DP  RH WIND       PRES   REMARKS
AMES           CLOUDY    68  48  48 SE10      29.82S                  
6HR MIN TEMP:  68; 6HR MAX TEMP:  77;                                

ANKENY *       CLOUDY    72  45  37 S14       29.84S                  
BOONE *        CLOUDY    68  48  49 S12       29.81S                  
CHARITON *     MOCLDY    64  46  52 SE10      29.86S                  
DES MOINES     CLOUDY    72  44  36 S15       29.84R                  
6HR MIN TEMP:  72; 6HR MAX TEMP:  79;                                

GRINNELL*      CLOUDY    65  47  51 SE13      29.88S                  
KNOXVILLE *    CLOUDY    66  45  45 SE9       29.86R                  
MARSHALLTOWN   CLOUDY    65  50  58 SE13      29.84F                  
6HR MIN TEMP:  65; 6HR MAX TEMP:  76;                                

NEWTON *       CLOUDY    64  48  55 SE9       29.86S                  
PELLA *        PTCLDY    67  46  46 SE6       29.88R                  
PERRY *        CLOUDY    69  44  40 S17       29.81R                  
$$
 
IAZ004>006-015-016-023>025-035-036-220700-
   NORTH CENTRAL IOWA
  
CITY           SKY/WX    TMP DP  RH WIND       PRES   REMARKS
ALGONA *       CLOUDY    66  48  52 SE15G22   29.78F                  
CLARION *      CLOUDY    68  46  45 S14       29.81S                  
ESTHERVILLE    MOCLDY    53  48  83 N14       29.80F                  
6HR MIN TEMP:  53; 6HR MAX TEMP:  73;                                

FORT DODGE *   CLEAR     70  48  45 S16G22    29.79F                  
MASON CITY     PTCLDY    60  49  66 SE12      29.84S                  
6HR MIN TEMP:  58; 6HR MAX TEMP:  76;                                

FOREST CITY *  CLOUDY    63  46  55 SE10      29.82F                  
IOWA FALLS *   FAIR      67  49  50 SE14G20   29.84F                  
$$

IAZ007>011-017>019-026>030-037>042-050>054-066-220700-
   NORTHEAST IOWA
  
CITY           SKY/WX    TMP DP  RH WIND       PRES   REMARKS
CEDAR RAPIDS   FAIR      66  46  48 S15G23    29.89S                  
6HR MIN TEMP:  66; 6HR MAX TEMP:  76;                                

CHARLES CITY * FAIR      63  48  59 SE15      29.86S                  
CLINTON *      FAIR      63  45  51 SE10      29.97S                  
DECORAH *      FAIR      66  45  45 S14G20    29.87S                  
DUBUQUE        FAIR      62  44  51 S16       29.94F                  
6HR MIN TEMP:  61; 6HR MAX TEMP:  76;                                

MONTICELLO *   FAIR      64  45  48 SE10      29.92F                  
OELWEIN *      FAIR      63  48  59 SE13      29.89F                  
WATERLOO       FAIR      67  46  47 SE14      29.86S                  
6HR MIN TEMP:  67; 6HR MAX TEMP:  79;                                

$$
 
IAZ064-065-067-068-078-220700-
   EAST CENTRAL IOWA
  
CITY           SKY/WX    TMP DP  RH WIND       PRES   REMARKS
DAVENPORT      FAIR      66  43  43 SE16      29.97S                  
6HR MIN TEMP:  66; 6HR MAX TEMP:  77;                                

IOWA CITY      MOCLDY    63  47  55 SE8       29.92F                  
6HR MIN TEMP:  62; 6HR MAX TEMP:  77;                                

MT. PLEASANT * CLOUDY    66  48  52 S12       29.93S                  
MUSCATINE *    FAIR      66  45  45 SE10      29.94S                  
QUAD CITIES    FAIR      65  44  46 SE7       29.95S                  
6HR MIN TEMP:  65; 6HR MAX TEMP:  78;                                

$$
 
IAZ062-063-075>077-085>089-095>099-220700-
   SOUTHEAST IOWA
  
CITY           SKY/WX    TMP DP  RH WIND       PRES   REMARKS
BURLINGTON     CLOUDY    67  46  47 S12       29.94R                  
6HR MIN TEMP:  67; 6HR MAX TEMP:  75;                                

FAIRFIELD *    CLOUDY    64  45  48 SE10      29.91R                  
FORT MADISON * CLOUDY    66  48  52 S9        29.95R                  
KEOKUK *       MOCLDY    70  46  43 S9        29.93R                  
OSKALOOSA *    FAIR      61  44  53 SE12      29.89R                  
CENTERVILLE *  FAIR      66  46  48 SE10      29.90R                  
OTTUMWA        CLOUDY    67  45  45 SE14      29.89R                  
6HR MIN TEMP:  65; 6HR MAX TEMP:  78;                                

WASHINGTON *   CLOUDY    66  46  48 S13       29.93S                  
$$

ABBREVIATIONS USED IN REMARKS
   TC - TEMPERATURES IN CELSIUS
  WCI - WIND CHILL INDEX
   HX - HEAT INDEX
  VSB - VISIBILITY  
$$